Barcelona, Spain

12:20 AM CET en Noviembre 19, 2017 (GMT +0100)
El Prat

Tiempo Historia de LEBL - Noviembre, 2017

Change the Weather History Date:

Martes, Noviembre 14, 2017

  Actual Average Record
Temperature  
Temperatura media 53 ° F -  
Temperatura máxima 62 ° F 58 ° F 69 ° F (1998)
Temperatura mínima 44 ° F 45 ° F 42 ° F (1999)
Degree Days  
Grados día de calefacción 12    
Growing Degree Days 3 (Base 50)    
Moisture  
Punto de rocío 27 ° F    
Average Humidity 38    
Maximum Humidity 58    
Minimum Humidity 14    
Precipitación  
Precipitación 0.00 pul 0.08 pul - ()
Presión al nivel del mar  
Presión al nivel del mar 30.05 pul    
Viento  
Velocidad del viento 11 mph ()    
Velocidad máxima del viento 17 mph    
Max Gust Speed 26 mph    
Visibilidad 14.2 Millas    
Eventos      
Averages and records for this station are not official NWS values.
T = Trace of Precipitation, MM = Missing Value Source: Averaged Metar Reports

Daily Weather History Graph

Daily Weather History Graph

Search for Another Location

Airport or City:

Trip Planner

Search our weather history database for the weather conditions in past years. The results will help you decide how hot, cold, wet, or windy it might be!

Date:

Astronomía

Nov. 14, 2017 Salida Puesta
Hora real 7:38 AM CET 5:33 PM CET
Crepúsculo civil 7:09 AM CET 6:02 PM CET
Crepúsculo náutico 6:35 AM CET 6:36 PM CET
Crepúsculo astronómico 6:03 AM CET 7:08 PM CET
Luna 3:20 AM CET (11/14) 3:52 PM CET (11/14)
Horas de luz 10h 53m
Horas de luz
9h 54m
Creciente menguante, 15% of the Moon is Illuminated
Nov 14
Creciente menguante
Nov 18
Nueva
Nov 26
Cuarto creciente
Dic 3
Luna llena
Dic 10
Cuarto menguante

Hourly Weather History & Observations

Hora (CET) Temp. Vientos helados Punto de rocío Humedad Presión Visibilidad Wind Dir Velocidad del viento Velocidad de ráfagas Precip Eventos Condiciones
12:00 AM 51.8 ° F - 17.6 ° F 26% 29.95 pul - NO 17.3 mph - N/A   Despejado
12:30 AM 51.8 ° F - 17.6 ° F 26% 29.95 pul - NO 15.0 mph - N/A   Despejado
1:00 AM 52 ° F - 18 ° F 15% 29.97 pul 19 mi NNO 10.4 mph - -   Despejado
1:00 AM 51.8 ° F - 19.4 ° F 28% 29.95 pul - NNO 13.8 mph - N/A   Despejado
1:30 AM 48.2 ° F - 21.2 ° F 34% 29.95 pul - NNO 13.8 mph - N/A   Despejado
2:00 AM 48 ° F - 21 ° F 22% 29.97 pul 11 mi NNO 6.9 mph - -  
2:00 AM 48.2 ° F - 23.0 ° F 37% 29.95 pul - NO 12.7 mph - N/A   Despejado
2:30 AM 48.2 ° F - 23.0 ° F 37% 29.98 pul - NO 11.5 mph - N/A   Despejado
3:00 AM 48 ° F - 21 ° F 21% 29.98 pul 16 mi Norte 9.2 mph - -  
3:00 AM 48.2 ° F - 21.2 ° F 34% 29.98 pul - NNO 11.5 mph - N/A   Despejado
3:30 AM 48.2 ° F - 21.2 ° F 34% 29.98 pul - NNO 11.5 mph - N/A   Despejado
4:00 AM 47 ° F - 22 ° F 24% 29.98 pul 19 mi Norte 9.2 mph - -   Despejado
4:00 AM 46.4 ° F 40.1 ° F 23.0 ° F 40% 29.98 pul - NO 15.0 mph - N/A   Despejado
4:30 AM 46.4 ° F 40.1 ° F 23.0 ° F 40% 29.98 pul - NO 15.0 mph - N/A   Despejado
5:00 AM 46 ° F - 23 ° F 27% 29.99 pul 19 mi Norte 10.4 mph - -  
5:00 AM 46.4 ° F 40.1 ° F 23.0 ° F 40% 29.98 pul - NNO 15.0 mph - N/A   Despejado
5:30 AM 44.6 ° F 37.8 ° F 23.0 ° F 43% 29.98 pul - NNO 15.0 mph - N/A   Despejado
6:00 AM 46 ° F - 24 ° F 28% 30.00 pul 19 mi Norte 12.7 mph - -  
6:00 AM 44.6 ° F 37.4 ° F 24.8 ° F 46% 29.98 pul - NNO 16.1 mph - N/A   Despejado
6:30 AM 44.6 ° F 37.8 ° F 24.8 ° F 46% 30.01 pul - NNO 15.0 mph - N/A   Despejado
7:00 AM 45 ° F - 25 ° F 32% 30.01 pul 19 mi Norte 12.7 mph - -   Despejado
7:00 AM 44.6 ° F 37.4 ° F 24.8 ° F 46% 30.01 pul - NNO 16.1 mph - N/A   Despejado
7:30 AM 44.6 ° F 37.2 ° F 24.8 ° F 46% 30.01 pul - NNO 17.3 mph - N/A   Despejado
8:00 AM 44 ° F - 26 ° F 36% 30.04 pul 17 mi NNO 12.7 mph - -  
8:00 AM 44.6 ° F 37.4 ° F 24.8 ° F 46% 30.04 pul - NNO 16.1 mph - N/A   Despejado
8:30 AM 44.6 ° F 37.4 ° F 26.6 ° F 49% 30.04 pul - NNO 16.1 mph - N/A   Despejado
9:00 AM 46 ° F - 26 ° F 33% 30.06 pul 17 mi Norte 12.7 mph - -  
9:00 AM 44.6 ° F 37.8 ° F 26.6 ° F 49% 30.04 pul - NNO 15.0 mph 26.5 mph N/A   Despejado
9:30 AM 46.4 ° F 40.7 ° F 26.6 ° F 46% 30.04 pul - NNO 12.7 mph - N/A   Despejado
10:00 AM 49 ° F - 27 ° F 29% 30.07 pul 25 mi Norte 12.7 mph - -   Nubes dispersas
10:00 AM 48.2 ° F - 26.6 ° F 43% 30.06 pul - NNO 13.8 mph - N/A   Despejado
10:30 AM 50.0 ° F - 26.6 ° F 40% 30.06 pul 6.2 mi NNO 13.8 mph - N/A   Parcialmente nublado
11:00 AM 53 ° F - 27 ° F 24% 30.08 pul 16 mi Norte 11.5 mph - -  
11:30 AM 53.6 ° F - 28.4 ° F 38% 30.06 pul - NNO 12.7 mph 24.2 mph N/A   Despejado
12:00 PM 56 ° F - 26 ° F 20% 30.08 pul 19 mi Norte 10.4 mph - -  
12:00 PM 55.4 ° F - 26.6 ° F 33% 30.06 pul - NO 11.5 mph - N/A   Despejado
12:30 PM 57.2 ° F - 26.6 ° F 31% 30.06 pul - NO 10.4 mph - N/A   Despejado
1:00 PM 57.2 ° F - 23.0 ° F 27% 30.06 pul - NO 5.8 mph - N/A   Despejado
1:30 PM 59.0 ° F - 21.2 ° F 23% 30.06 pul - NO 3.5 mph - N/A   Despejado
2:00 PM 61 ° F - 24 ° F 14% 30.06 pul 18 mi NO 3.5 mph - -  
2:00 PM 59.0 ° F - 26.6 ° F 29% 30.04 pul - ONO 3.5 mph - N/A   Despejado
2:30 PM 60.8 ° F - 28.4 ° F 29% 30.06 pul - Variable 2.3 mph - N/A   Despejado
3:00 PM 62 ° F - 31 ° F 20% 30.06 pul 12 mi SSO 5.8 mph - -  
3:00 PM 59.0 ° F - 32.0 ° F 36% 30.06 pul - Sur 4.6 mph - N/A   Despejado
3:30 PM 59.0 ° F - 32.0 ° F 36% 30.06 pul - Sur 5.8 mph - N/A   Despejado
4:00 PM 61 ° F - 31 ° F 21% 30.08 pul 25 mi Sur 4.6 mph - -   Nubes dispersas
4:00 PM 59.0 ° F - 32.0 ° F 36% 30.06 pul 6.2 mi Sur 5.8 mph - N/A   Parcialmente nublado
4:30 PM 59.0 ° F - 33.8 ° F 39% 30.06 pul 6.2 mi Sur 6.9 mph - N/A   Parcialmente nublado
5:00 PM 60 ° F - 34 ° F 25% 30.09 pul 19 mi SSO 5.8 mph - -  
5:00 PM 59.0 ° F - 33.8 ° F 39% 30.06 pul 6.2 mi SSO 5.8 mph - N/A   Parcialmente nublado
5:30 PM 57.2 ° F - 35.6 ° F 44% 30.09 pul 6.2 mi SSO 5.8 mph - N/A   Parcialmente nublado
6:00 PM 56 ° F - 35 ° F 33% 30.10 pul 19 mi OSO 5.8 mph - -  
6:00 PM 55.4 ° F - 35.6 ° F 47% 30.09 pul 6.2 mi SO 4.6 mph - N/A   Parcialmente nublado
6:30 PM 53.6 ° F - 35.6 ° F 51% 30.09 pul - Oeste 3.5 mph - N/A   Despejado
7:00 PM 51.8 ° F - 33.8 ° F 50% 30.09 pul - NO 5.8 mph - N/A   Despejado
7:30 PM 50.0 ° F - 35.6 ° F 58% 30.09 pul - NNO 6.9 mph - N/A   Despejado
8:00 PM 50 ° F - 34 ° F 42% 30.13 pul 14 mi Norte 2.3 mph - -  
8:00 PM 50.0 ° F - 33.8 ° F 54% 30.12 pul - NNO 5.8 mph - N/A   Despejado
8:30 PM 48.2 ° F - 33.8 ° F 58% 30.12 pul - NO 5.8 mph - N/A   Despejado
9:00 PM 48 ° F - 33 ° F 44% 30.14 pul 14 mi Norte 6.9 mph - -  
9:00 PM 48.2 ° F - 32.0 ° F 54% 30.12 pul - NO 6.9 mph - N/A   Despejado
9:30 PM 46.4 ° F 42.9 ° F 32.0 ° F 57% 30.12 pul - NNO 6.9 mph - N/A   Despejado
10:00 PM 46.4 ° F 41.5 ° F 32.0 ° F 57% 30.12 pul - NNO 10.4 mph - N/A   Despejado
10:30 PM 48.2 ° F - 32.0 ° F 54% 30.12 pul - NNO 11.5 mph 25.3 mph N/A   Despejado
11:00 PM 47 ° F - 31 ° F 42% 30.14 pul 16 mi Norte 11.5 mph - -  
11:00 PM 46.4 ° F 41.5 ° F 32.0 ° F 57% 30.12 pul - NNO 10.4 mph - N/A   Despejado
11:30 PM 46.4 ° F 41.5 ° F 30.2 ° F 53% 30.12 pul - NNO 10.4 mph - N/A   Despejado